FW7875 Weather Reports


Display with metric or nautical units.
time (UTC)temp
F
wind
direction
speed
MPH
gust
MPH
rain 1hr
in
rain 24hr
in
rain mn
in
humidity
%
barometer
mb
20260831111536 56 84 2.0 6.0 0.00 0.00 0.00 74 1024.3
20260831111019 56 68 5.0 6.0 0.00 0.00 0.00 75 1024.4
20260831110527 56 100 3.0 4.0 0.00 0.00 0.00 75 1024.5
20260831110038 56 119 3.0 4.0 0.00 0.00 0.00 76 1024.5
20260831105518 56 96 2.0 5.0 0.00 0.03 0.00 75 1024.7
20260831105019 56 80 3.0 5.0 0.00 0.03 0.00 74 1024.6
20260831104537 56 0 0.0 3.0 0.00 0.03 0.00 74 1024.6
20260831104018 56 77 1.0 5.0 0.00 0.03 0.00 74 1024.5
20260831103518 56 94 2.0 5.0 0.00 0.03 0.00 74 1024.7
20260831103040 56 102 3.0 5.0 0.00 0.03 0.00 73 1024.7
20260831102519 56 85 3.0 4.0 0.00 0.03 0.00 73 1024.6
20260831102018 56 93 0.0 4.0 0.00 0.03 0.00 73 1024.9
20260831101550 57 91 3.0 4.0 0.00 0.03 0.00 72 1024.8
20260831101018 58 98 0.0 0.0 0.00 0.03 0.00 70 1024.8
20260831100517 59 0 0.0 1.0 0.00 0.03 0.00 68 1025.0
20260831100043 59 0 0.0 1.0 0.00 0.03 0.00 69 1025.1
20260831095519 58 0 0.0 5.0 0.00 0.04 0.00 70 1025.1
20260831095024 58 0 1.0 5.0 0.00 0.04 0.00 70 1025.2
20260831094542 58 273 0.0 3.0 0.00 0.04 0.00 69 1025.3
20260831094020 59 0 0.0 4.0 0.00 0.04 0.00 69 1025.0
20260831093520 59 0 2.0 4.0 0.00 0.04 0.00 68 1024.9
20260831093040 59 41 3.0 6.0 0.00 0.04 0.00 69 1025.0
20260831092520 59 51 4.0 6.0 0.00 0.04 0.00 68 1024.8
20260831092017 60 53 2.0 6.0 0.00 0.04 0.00 67 1024.8
20260831091538 60 46 0.0 8.0 0.00 0.04 0.00 67 1024.8
20260831091022 61 0 1.0 8.0 0.00 0.04 0.00 67 1024.7
20260831090519 60 56 4.0 8.0 0.00 0.04 0.00 69 1024.7
20260831090053 60 276 5.0 6.0 0.00 0.04 0.00 69 1024.6
20260831085519 60 321 3.0 6.0 0.00 0.04 0.00 68 1024.6
20260831085020 61 23 4.0 9.0 0.00 0.04 0.00 67 1024.7
20260831084541 61 0 1.0 9.0 0.00 0.04 0.00 67 1024.6
20260831084019 61 222 5.0 9.0 0.00 0.04 0.00 68 1024.6
20260831083520 60 322 1.0 3.0 0.00 0.04 0.00 69 1024.8
20260831083036 60 0 1.0 3.0 0.00 0.04 0.00 69 1024.8
20260831082517 61 30 1.0 5.0 0.00 0.04 0.00 68 1024.7
20260831082016 60 0 1.0 5.0 0.00 0.04 0.00 69 1024.5
20260831081540 60 0 1.0 5.0 0.00 0.04 0.00 69 1024.7
20260831081021 59 292 2.0 10.0 0.00 0.04 0.00 69 1024.7
20260831080520 58 201 5.0 10.0 0.00 0.04 0.00 72 1024.9
20260831080039 57 122 5.0 10.0 0.00 0.04 0.00 72 1025.4
20260831075517 57 134 4.0 8.0 0.00 0.04 0.00 73 1025.5
20260831075020 57 128 3.0 6.0 0.00 0.04 0.00 73 1025.3
20260831074538 57 127 3.0 8.0 0.00 0.04 0.00 73 1025.2
20260831074017 57 151 5.0 8.0 0.00 0.04 0.00 74 1025.3
20260831073526 57 172 4.0 8.0 0.00 0.04 0.00 73 1024.9
20260831073039 58 122 5.0 9.0 0.00 0.04 0.00 72 1024.6
20260831072518 57 113 5.0 11.0 0.00 0.04 0.00 72 1024.5
20260831072023 57 124 7.0 12.0 0.00 0.04 0.00 73 1024.6
20260831071535 57 103 9.0 12.0 0.00 0.04 0.00 73 1024.5
20260831071018 57 80 8.0 12.0 0.00 0.04 0.00 74 1024.5
20260831070523 57 105 8.0 12.0 0.00 0.04 0.00 74 1024.5
20260831070038 57 96 9.0 12.0 0.00 0.04 0.00 75 1024.5
20260831065519 56 92 8.0 13.0 0.00 0.04 0.00 75 1024.6
20260831065020 56 93 9.0 13.0 0.00 0.04 0.00 76 1024.5
20260831064541 56 110 5.0 13.0 0.00 0.04 0.00 76 1024.6
20260831064018 57 128 8.0 14.0 0.00 0.04 0.00 74 1024.5
20260831063523 57 122 8.0 14.0 0.00 0.04 0.00 74 1024.3
20260831063035 57 118 9.0 14.0 0.00 0.04 0.00 74 1024.3
20260831062520 57 113 9.0 13.0 0.00 0.04 0.00 74 1024.2
20260831062020 57 101 9.0 13.0 0.00 0.04 0.00 74 1024.2
20260831061540 57 95 10.0 13.0 0.00 0.04 0.00 75 1024.1
20260831061020 57 96 10.0 13.0 0.00 0.04 0.00 75 1024.1
20260831060519 56 104 10.0 13.0 0.00 0.04 0.00 75 1024.1
20260831060042 56 101 9.0 12.0 0.00 0.04 0.00 76 1024.1
20260831055519 56 97 8.0 12.0 0.00 0.04 0.04 76 1024.2
20260831055020 56 100 8.0 12.0 0.00 0.04 0.04 75 1024.2
20260831054541 56 99 10.0 12.0 0.00 0.04 0.04 76 1024.2
20260831054019 56 101 8.0 10.0 0.00 0.04 0.04 76 1024.3
20260831053518 56 96 7.0 10.0 0.00 0.04 0.04 76 1024.3
20260831053040 56 104 7.0 10.0 0.00 0.04 0.04 76 1024.3
20260831052519 57 99 8.0 11.0 0.00 0.04 0.04 76 1024.2
20260831052019 57 95 8.0 14.0 0.00 0.04 0.04 76 1024.3
20260831051541 57 105 9.0 14.0 0.00 0.04 0.04 75 1024.3
20260831051018 57 106 9.0 12.0 0.00 0.04 0.04 76 1024.3
20260831050516 57 96 9.0 13.0 0.00 0.04 0.04 76 1024.3
20260831050040 57 98 9.0 16.0 0.00 0.04 0.04 76 1024.4
20260831045520 57 117 12.0 16.0 0.00 0.04 0.04 76 1024.3
20260831045019 57 107 12.0 16.0 0.00 0.04 0.04 76 1024.3
20260831044538 57 94 11.0 14.0 0.00 0.04 0.04 76 1024.4
20260831044021 57 101 11.0 14.0 0.00 0.04 0.04 76 1024.4
20260831043521 57 98 11.0 14.0 0.00 0.04 0.04 76 1024.6
20260831043037 58 94 10.0 14.0 0.00 0.04 0.04 76 1024.7
20260831042520 58 83 9.0 14.0 0.00 0.04 0.04 76 1024.8
20260831042017 58 101 10.0 15.0 0.00 0.04 0.04 75 1024.8
20260831041539 58 120 12.0 15.0 0.00 0.04 0.04 75 1024.8
20260831041021 58 101 11.0 15.0 0.00 0.04 0.04 75 1024.8
20260831040521 58 96 9.0 15.0 0.00 0.04 0.04 75 1025.0
20260831040036 58 101 11.0 15.0 0.00 0.04 0.04 75 1025.0
20260831035517 58 88 9.0 15.0 0.00 0.04 0.04 75 1024.9
20260831035020 59 98 12.0 17.0 0.00 0.04 0.04 74 1024.9
20260831034538 59 95 11.0 17.0 0.00 0.04 0.04 73 1024.9
20260831034020 60 86 12.0 18.0 0.00 0.04 0.04 72 1025.0
20260831033519 60 100 13.0 18.0 0.00 0.04 0.04 70 1025.0
20260831033039 61 67 9.0 15.0 0.00 0.04 0.04 69 1024.9
20260831032516 61 117 9.0 16.0 0.00 0.04 0.04 67 1024.7
20260831032017 61 89 9.0 16.0 0.00 0.04 0.04 70 1024.7
20260831031544 61 82 9.0 14.0 0.00 0.04 0.04 69 1024.7
20260831031021 61 85 5.0 12.0 0.00 0.04 0.04 69 1024.6
20260831030520 61 138 8.0 18.0 0.00 0.04 0.04 70 1024.3
20260831030036 61 154 11.0 26.0 0.00 0.04 0.04 70 1024.3
20260831025520 61 142 12.0 26.0 0.00 0.04 0.04 71 1024.3
20260831025019 61 170 17.0 27.0 0.00 0.04 0.04 71 1024.5
20260831024606 61 184 19.0 27.0 0.00 0.04 0.04 72 1024.6
20260831024018 61 181 19.0 27.0 0.00 0.04 0.04 72 1024.6
20260831023519 60 154 11.0 19.0 0.00 0.04 0.04 73 1024.7
20260831023041 60 128 9.0 13.0 0.00 0.04 0.04 75 1024.7
20260831022520 60 117 10.0 14.0 0.00 0.04 0.04 74 1024.4
20260831022018 60 117 11.0 14.0 0.00 0.04 0.04 73 1024.3
20260831021538 61 99 8.0 11.0 0.00 0.04 0.04 72 1024.0
20260831021021 61 134 7.0 11.0 0.00 0.04 0.04 71 1024.1
20260831020520 61 98 8.0 12.0 0.00 0.04 0.04 70 1023.9
20260831020038 61 98 8.0 12.0 0.00 0.04 0.04 70 1024.0
20260831015523 61 91 9.0 13.0 0.00 0.04 0.04 69 1023.9
20260831015017 61 101 8.0 13.0 0.00 0.04 0.04 70 1023.8
20260831014539 61 103 10.0 13.0 0.00 0.04 0.04 70 1023.9
20260831014020 61 96 9.0 13.0 0.00 0.04 0.04 70 1023.8
20260831013517 61 86 8.0 12.0 0.00 0.04 0.04 70 1023.8
20260831013045 61 85 9.0 13.0 0.00 0.04 0.04 70 1023.7
20260831012520 61 102 8.0 15.0 0.00 0.04 0.04 70 1023.6
20260831012020 61 103 10.0 15.0 0.00 0.04 0.04 71 1023.5
20260831011539 61 91 9.0 16.0 0.00 0.04 0.04 71 1023.6
20260831011020 61 103 11.0 16.0 0.00 0.04 0.04 69 1023.5
20260831010520 61 117 11.0 16.0 0.00 0.04 0.04 69 1023.4
20260831010037 61 112 11.0 18.0 0.00 0.04 0.04 69 1023.4
20260831005520 61 110 9.0 18.0 0.00 0.04 0.04 70 1023.6
20260831005018 61 112 12.0 16.0 0.00 0.04 0.04 70 1023.4
20260831004535 61 108 10.0 14.0 0.00 0.04 0.04 70 1023.3
20260831004024 62 86 9.0 12.0 0.00 0.04 0.04 69 1023.2
20260831003520 62 104 9.0 11.0 0.00 0.04 0.04 67 1023.2
20260831003037 62 127 7.0 12.0 0.00 0.04 0.04 66 1023.2
20260831002522 63 120 9.0 12.0 0.00 0.04 0.04 64 1023.3
20260831002018 63 151 9.0 14.0 0.00 0.04 0.04 64 1023.4
20260831001944 63 130 8.0 14.0 0.00 0.04 0.04 65 1023.0
20260830234626 70 244 11.0 20.0 0.00 0.04 0.04 49 1023.4
20260830234019 71 264 3.0 8.0 0.00 0.04 0.04 45 1023.1
20260830233519 71 303 2.0 4.0 0.00 0.04 0.04 43 1022.6
20260830233038 71 0 0.0 3.0 0.00 0.04 0.04 43 1022.5
20260830232524 71 0 1.0 6.0 0.00 0.04 0.04 43 1022.5
20260830232018 71 4 3.0 7.0 0.00 0.04 0.04 43 1022.5
20260830231536 71 349 4.0 7.0 0.00 0.04 0.04 44 1022.4
20260830231021 71 13 5.0 8.0 0.00 0.04 0.04 45 1022.4
20260830230518 71 356 5.0 10.0 0.00 0.04 0.04 45 1022.2
20260830230038 71 357 5.0 10.0 0.00 0.04 0.04 45 1022.4
20260830225520 72 357 6.0 11.0 0.00 0.04 0.04 45 1022.1
20260830225020 73 350 7.0 11.0 0.00 0.04 0.04 43 1022.3
20260830224542 73 354 8.0 10.0 0.00 0.04 0.04 43 1022.3
20260830224022 73 316 8.0 15.0 0.00 0.04 0.04 41 1022.3
20260830223518 71 310 10.0 16.0 0.00 0.04 0.04 46 1022.4
20260830223040 72 319 10.0 23.0 0.00 0.04 0.04 45 1022.4
20260830222520 71 305 16.0 23.0 0.00 0.04 0.04 49 1022.6
20260830222020 72 294 17.0 21.0 0.00 0.04 0.04 50 1022.6
20260830221544 73 297 14.0 23.0 0.00 0.04 0.04 48 1022.6
20260830221020 74 293 16.0 23.0 0.00 0.04 0.04 46 1022.6
20260830220522 75 302 11.0 16.0 0.00 0.04 0.04 42 1022.4
20260830220039 76 305 11.0 16.0 0.00 0.04 0.04 40 1022.4
20260830215519 76 313 12.0 15.0 0.00 0.04 0.04 40 1022.3
20260830215021 77 288 8.0 13.0 0.00 0.04 0.04 40 1022.4
20260830214539 76 228 3.0 12.0 0.00 0.04 0.04 39 1022.3
20260830214017 77 296 7.0 12.0 0.00 0.04 0.04 38 1022.3
20260830213520 77 326 5.0 15.0 0.00 0.04 0.04 36 1022.3
20260830213039 76 316 8.0 15.0 0.00 0.04 0.04 38 1022.4
20260830212518 76 318 5.0 15.0 0.00 0.04 0.04 40 1022.4
20260830212018 77 302 9.0 17.0 0.00 0.04 0.04 38 1022.3
20260830211541 76 354 6.0 17.0 0.00 0.04 0.04 40 1022.4
20260830211023 76 337 4.0 16.0 0.00 0.04 0.04 39 1022.5
20260830210519 76 351 9.0 16.0 0.00 0.04 0.04 39 1022.6
20260830210042 75 345 9.0 18.0 0.00 0.04 0.04 41 1022.6
20260830205520 75 328 11.0 18.0 0.00 0.04 0.04 40 1022.9
20260830205018 74 327 12.0 18.0 0.00 0.04 0.04 40 1022.9
20260830204543 74 332 12.0 18.0 0.00 0.04 0.04 39 1022.8
20260830204019 74 1 12.0 21.0 0.00 0.04 0.04 40 1023.0
20260830203516 74 326 16.0 24.0 0.00 0.04 0.04 40 1023.2
20260830203049 73 326 17.0 24.0 0.00 0.04 0.04 40 1023.1
20260830202523 73 321 18.0 27.0 0.00 0.04 0.04 41 1023.2
20260830202020 73 313 18.0 34.0 0.00 0.04 0.04 42 1023.4
20260830201547 74 296 20.0 34.0 0.00 0.04 0.04 42 1023.5
20260830201018 77 304 17.0 26.0 0.00 0.04 0.04 41 1023.4
20260830200518 81 284 17.0 25.0 0.00 0.04 0.04 29 1023.2
20260830200041 81 246 17.0 27.0 0.00 0.04 0.04 30 1022.8
20260830195521 80 228 19.0 27.0 0.00 0.04 0.04 29 1022.9
20260830195020 81 248 15.0 25.0 0.00 0.04 0.04 29 1022.8
20260830194542 80 252 16.0 29.0 0.00 0.04 0.04 34 1022.9
20260830194022 80 257 17.0 29.0 0.00 0.04 0.04 31 1022.9
20260830193525 81 217 14.0 23.0 0.00 0.04 0.04 32 1023.0
20260830193039 81 238 17.0 29.0 0.00 0.04 0.04 32 1023.0
20260830192518 81 228 18.0 29.0 0.00 0.04 0.04 31 1023.1
20260830192021 81 266 13.0 23.0 0.00 0.04 0.04 34 1023.1
20260830191541 79 287 15.0 23.0 0.00 0.04 0.04 37 1023.2
20260830191020 80 236 15.0 23.0 0.00 0.04 0.04 33 1023.3
20260830190517 80 234 14.0 23.0 0.00 0.04 0.04 35 1023.4
20260830190043 78 280 14.0 22.0 0.00 0.04 0.04 38 1023.2
20260830185519 78 248 15.0 21.0 0.00 0.05 0.04 38 1023.4
20260830185020 79 254 14.0 21.0 0.00 0.05 0.04 37 1023.5
20260830184538 79 253 13.0 21.0 0.00 0.05 0.04 38 1023.5
20260830184016 78 222 14.0 21.0 0.00 0.05 0.04 37 1023.6
20260830183519 78 252 13.0 21.0 0.00 0.05 0.04 39 1023.5
20260830183036 78 233 14.0 23.0 0.00 0.05 0.04 38 1023.6
20260830182520 77 245 12.0 23.0 0.00 0.05 0.04 40 1023.7
20260830182020 78 239 15.0 23.0 0.00 0.05 0.04 39 1023.9
20260830181550 78 224 15.0 21.0 0.00 0.05 0.04 40 1023.8
20260830181020 77 257 11.0 22.0 0.00 0.05 0.04 42 1023.9
20260830180521 76 244 14.0 22.0 0.00 0.05 0.04 44 1024.0
20260830180040 76 240 13.0 20.0 0.00 0.05 0.04 44 1024.1
20260830175520 75 238 13.0 20.0 0.00 0.05 0.04 44 1024.1
20260830175020 76 259 10.0 18.0 0.00 0.05 0.04 44 1024.2
20260830174537 76 240 8.0 18.0 0.00 0.05 0.04 45 1024.2
20260830174020 75 226 10.0 18.0 0.00 0.05 0.04 45 1024.2
20260830173519 74 205 10.0 18.0 0.00 0.05 0.04 46 1024.3
20260830173052 74 254 12.0 19.0 0.00 0.05 0.04 45 1024.4
20260830172516 75 241 13.0 20.0 0.00 0.05 0.04 44 1024.3
20260830172020 74 244 14.0 21.0 0.00 0.05 0.04 45 1024.2
20260830171542 74 228 11.0 21.0 0.00 0.05 0.04 47 1024.3
20260830171020 75 215 15.0 21.0 0.00 0.05 0.04 46 1024.2
20260830170518 74 257 12.0 17.0 0.00 0.05 0.04 49 1024.2
20260830170036 74 256 11.0 22.0 0.00 0.05 0.04 48 1024.2
20260830165519 73 265 12.0 22.0 0.00 0.05 0.04 48 1024.3
20260830165018 73 236 15.0 22.0 0.00 0.05 0.04 48 1024.2
20260830164557 72 249 13.0 21.0 0.00 0.05 0.04 51 1024.2
20260830164018 70 262 9.0 15.0 0.00 0.05 0.04 52 1024.1
20260830163519 70 259 4.0 8.0 0.00 0.05 0.04 55 1024.3
20260830163051 70 293 4.0 9.0 0.00 0.05 0.04 54 1024.2
20260830162521 70 290 6.0 12.0 0.00 0.05 0.04 55 1024.3
20260830162018 70 291 4.0 12.0 0.00 0.05 0.04 57 1024.3
20260830161540 70 292 7.0 11.0 0.00 0.05 0.04 55 1024.2
20260830161020 71 282 8.0 11.0 0.00 0.05 0.04 55 1024.2
20260830160519 70 305 6.0 11.0 0.00 0.05 0.04 54 1024.0
20260830160036 70 306 7.0 11.0 0.00 0.05 0.04 57 1024.2
20260830155520 71 276 8.0 11.0 0.00 0.05 0.04 54 1024.1
20260830155018 71 269 6.0 11.0 0.00 0.05 0.04 55 1024.1
20260830154536 71 263 6.0 10.0 0.00 0.05 0.04 55 1024.0
20260830154018 71 290 5.0 8.0 0.00 0.05 0.04 57 1024.0
20260830153517 71 267 4.0 6.0 0.00 0.05 0.04 56 1024.0
20260830153038 70 267 3.0 5.0 0.00 0.05 0.04 60 1023.9
20260830152524 68 323 2.0 7.0 0.00 0.05 0.04 61 1023.9
20260830152020 68 327 3.0 7.0 0.00 0.05 0.04 60 1024.0
20260830151542 68 326 1.0 3.0 0.00 0.05 0.04 60 1024.0
20260830151020 67 0 0.0 1.0 0.00 0.05 0.04 62 1024.0
20260830150519 66 0 0.0 0.0 0.00 0.05 0.04 62 1023.9
20260830150040 66 0 0.0 0.0 0.00 0.05 0.04 62 1023.8
20260830145518 65 0 0.0 0.0 0.00 0.05 0.04 64 1023.9
20260830145017 65 0 0.0 0.0 0.00 0.05 0.04 71 1023.8
20260830144548 64 0 0.0 1.0 0.00 0.05 0.04 70 1023.9
20260830144018 64 0 0.0 2.0 0.00 0.05 0.04 71 1023.9
20260830143518 64 120 0.0 3.0 0.00 0.05 0.04 69 1024.0
20260830143036 64 94 1.0 3.0 0.00 0.05 0.04 70 1023.9
20260830142521 64 100 1.0 2.0 0.00 0.05 0.04 69 1024.0
20260830142018 63 101 1.0 4.0 0.00 0.05 0.04 70 1023.8
20260830141537 63 74 1.0 5.0 0.00 0.05 0.04 67 1023.8
20260830141019 63 64 3.0 5.0 0.00 0.05 0.04 68 1023.8
20260830140520 63 142 1.0 4.0 0.00 0.05 0.04 67 1023.7
20260830140037 63 0 0.0 2.0 0.00 0.05 0.04 67 1023.7
20260830135518 62 0 0.0 2.0 0.00 0.05 0.04 67 1023.6
20260830135020 62 28 0.0 4.0 0.00 0.05 0.04 69 1023.7
20260830134536 62 55 0.0 4.0 0.00 0.05 0.04 70 1023.6
20260830134017 61 39 2.0 5.0 0.00 0.05 0.04 71 1023.6
20260830133522 60 71 3.0 9.0 0.00 0.05 0.04 74 1023.6
20260830133048 59 59 4.0 9.0 0.00 0.05 0.04 77 1023.5
20260830132522 58 93 5.0 7.0 0.00 0.05 0.04 80 1023.4
20260830132019 58 81 3.0 5.0 0.00 0.05 0.04 81 1023.3
20260830131538 57 98 3.0 4.0 0.00 0.05 0.04 83 1023.4
20260830131020 57 0 0.0 5.0 0.00 0.05 0.04 84 1023.4
20260830130520 57 107 3.0 5.0 0.00 0.05 0.04 85 1023.4
20260830130036 57 86 2.0 5.0 0.00 0.05 0.04 84 1023.4
20260830125518 57 96 3.0 5.0 0.00 0.05 0.04 85 1023.2
20260830125022 56 88 3.0 7.0 0.00 0.05 0.04 86 1023.5
20260830124553 56 80 3.0 7.0 0.00 0.05 0.04 86 1023.4
20260830124016 57 105 5.0 7.0 0.00 0.05 0.04 85 1023.4
20260830123516 56 87 5.0 8.0 0.00 0.05 0.04 86 1023.2
20260830123044 56 120 6.0 10.0 0.00 0.05 0.04 86 1023.4
20260830122518 56 121 5.0 10.0 0.00 0.05 0.04 86 1023.4
20260830122019 56 134 7.0 10.0 0.00 0.05 0.04 87 1023.4
20260830121536 56 105 6.0 9.0 0.00 0.05 0.04 87 1023.4
20260830121020 56 110 6.0 9.0 0.00 0.05 0.04 87 1023.4
20260830120520 56 103 6.0 9.0 0.00 0.05 0.04 87 1023.4
20260830120037 56 103 4.0 7.0 0.00 0.05 0.04 87 1023.4
20260830115520 56 98 2.0 5.0 0.00 0.05 0.04 88 1023.4
20260830115017 56 101 4.0 5.0 0.00 0.05 0.04 88 1023.4
20260830114542 56 92 4.0 7.0 0.00 0.05 0.04 88 1023.4
20260830114019 56 110 4.0 7.0 0.00 0.05 0.04 88 1023.4
20260830113523 56 112 5.0 7.0 0.00 0.05 0.04 88 1023.4
20260830113038 56 103 3.0 4.0 0.00 0.05 0.04 87 1023.3
20260830112519 56 102 1.0 4.0 0.00 0.05 0.04 87 1023.2
20260830112020 56 127 3.0 4.0 0.00 0.05 0.04 87 1023.4